Powrót do katalogu

STARLINK-5482

AktywnyŁącznośćSSO
NORAD 56358·PAYLOAD·🇺🇸 United States

Wystrzelony Apr 27, 2023 z Vandenberg Space Force Base

Loading…

Następne Przeloty (najbliższe 24 godziny)

TLE

ŚwieżeSource: CelesTrak SupGP

Epoka: Sep 14, 2026, 22:25 UTC

1 56358C 23058AT  26257.93451389  .00421560  00000+0  25571-1 0  2574
2 56358  97.2853 252.1235 0001970  89.0555 333.4009 15.10417502    11

Śledź STARLINK-5482 w czasie rzeczywistym z AllMySat

Download on the App Store